START_TIME,STEP,MOV.,M29,t_acc.,H22,t_acc.,H26,t_acc.,H30,t_acc.
1979-07-07 03:00:32.540 ,1,0,0.,24.0,0.,24.0,0.,24.0,0.,24.0
1979-07-07 03:00:56.540 ,2,1,0.,24.0,0.,24.0,0.,24.0,0.,24.0
1979-07-07 03:01:20.540 ,2,0,0.,24.0,0.,24.0,0.,24.0,0.,24.0
1979-07-07 03:01:44.540 ,3,1,0.,24.0,0.,24.0,0.,24.0,0.,24.0
1979-07-07 03:02:08.540 ,3,0,0.,24.0,0.,24.0,0.,24.0,0.,24.0
1979-07-07 03:02:32.540 ,4,1,0.,24.0,0.,24.0,0.,24.0,0.,24.0
1979-07-07 03:02:56.540 ,4,0,0.,24.0,0.,24.0,0.,24.0,0.,24.0
1979-07-07 03:03:20.540 ,5,1,0.,24.0,0.,24.0,0.,24.0,0.,24.0
1979-07-07 03:03:44.540 ,5,0,0.,24.0,0.,24.0,0.,24.0,0.,24.0
1979-07-07 03:04:08.540 ,6,1,0.,24.0,0.,24.0,0.,24.0,0.,24.0
1979-07-07 03:04:32.540 ,6,0,0.,24.0,0.,24.0,0.,24.0,0.,24.0
1979-07-07 03:04:56.540 ,7,1,0.,24.0,0.,24.0,0.,24.0,0.,24.0
1979-07-07 03:05:20.540 ,7,0,0.,24.0,0.,24.0,0.,24.0,0.,24.0
1979-07-07 03:05:44.540 ,7,1,0.,24.0,0.,24.0,0.,24.0,0.,24.0
1979-07-07 03:06:08.540 ,7,0,0.,24.0,0.,24.0,0.,24.0,0.,24.0
1979-07-07 03:06:32.540 ,6,1,0.,24.0,0.,24.0,0.,24.0,0.,24.0
1979-07-07 03:06:56.540 ,6,0,0.,24.0,0.,24.0,0.,24.0,0.,24.0
1979-07-07 03:07:20.540 ,5,1,0.,24.0,0.,24.0,0.,24.0,0.,24.0
1979-07-07 03:07:44.540 ,5,0,0.,24.0,0.,24.0,0.,24.0,0.,24.0
1979-07-07 03:08:08.540 ,4,1,0.,24.0,0.,24.0,0.,24.0,0.,24.0
1979-07-07 03:08:32.540 ,4,0,0.,24.0,0.,24.0,0.,24.0,0.,24.0
1979-07-07 03:08:56.540 ,3,1,0.,24.0,0.,24.0,0.,24.0,0.,24.0
1979-07-07 03:09:20.540 ,3,0,0.,24.0,0.,24.0,0.,24.0,0.,24.0
1979-07-07 03:09:44.540 ,2,1,0.,24.0,0.,24.0,0.,24.0,0.,24.0
1979-07-07 03:10:08.540 ,2,0,0.,24.0,0.,24.0,0.,24.0,0.,24.0
1979-07-07 03:10:32.540 ,1,1,0.,24.0,0.,24.0,0.,24.0,0.,24.0
1979-07-07 03:10:56.540 ,1,0,0.,24.0,0.,24.0,0.,24.0,0.,24.0
1979-07-07 03:11:20.540 ,0,1,0.,24.0,0.,24.0,0.,24.0,0.,24.0
1979-07-07 03:11:44.540 ,0,0,0.,24.0,0.,24.0,0.,24.0,0.,24.0
1979-07-07 03:12:08.540 ,0,1,0.,24.0,0.,24.0,0.,24.0,0.,24.0
1979-07-07 03:12:32.540 ,0,0,0.,24.0,0.,24.0,0.,24.0,0.,24.0
1979-07-07 03:12:56.540 ,1,1,0.,24.0,0.,24.0,0.,24.0,0.,24.0
1979-07-07 03:13:20.540 ,1,0,0.,24.0,0.,24.0,0.,24.0,0.,24.0
1979-07-07 03:13:44.540 ,2,1,0.,24.0,0.,24.0,0.,24.0,0.,24.0
1979-07-07 03:14:08.540 ,2,0,0.,24.0,0.,24.0,0.,24.0,0.,24.0
1979-07-07 03:14:32.540 ,3,1,0.,24.0,0.,24.0,0.,24.0,0.,24.0
1979-07-07 03:14:56.540 ,3,0,0.,24.0,0.,24.0,0.,24.0,0.,24.0
1979-07-07 03:15:20.540 ,4,1,0.,24.0,0.,24.0,0.,24.0,0.,24.0
1979-07-07 03:15:44.540 ,0,0,0.,24.0,0.,24.0,0.,24.0,0.,24.0
1979-07-07 03:16:08.540 ,5,1,0.,24.0,0.,24.0,0.,24.0,0.,24.0
1979-07-07 03:16:32.540 ,5,0,0.,24.0,0.,24.0,0.,24.0,0.,24.0
1979-07-07 03:16:56.540 ,6,1,0.,24.0,0.,24.0,0.,24.0,0.,24.0
1979-07-07 03:17:20.540 ,6,0,0.,24.0,0.,24.0,0.,24.0,0.,24.0
1979-07-07 03:17:44.540 ,7,1,0.,24.0,0.,24.0,0.,24.0,0.,24.0
1979-07-07 03:18:08.540 ,7,0,0.,24.0,0.,24.0,0.,24.0,0.,24.0
1979-07-07 03:18:32.540 ,7,1,0.,24.0,0.,24.0,0.,24.0,0.,24.0
1979-07-07 03:18:56.540 ,7,0,0.,24.0,0.,24.0,0.,24.0,0.,24.0
1979-07-07 03:19:20.540 ,6,1,0.,24.0,0.,24.0,0.,24.0,0.,24.0
1979-07-07 03:19:44.540 ,6,0,0.,24.0,0.,24.0,0.,24.0,0.,24.0
1979-07-07 03:20:08.540 ,5,1,0.,24.0,0.,24.0,0.,24.0,0.,24.0
1979-07-07 03:20:32.540 ,5,0,0.,24.0,0.,24.0,0.,24.0,0.,24.0
1979-07-07 03:20:56.540 ,4,1,0.,24.0,0.,24.0,0.,24.0,0.,24.0
1979-07-07 03:21:20.540 ,4,0,0.,24.0,0.,24.0,0.,24.0,0.,24.0
1979-07-07 03:21:44.540 ,3,1,0.,24.0,0.,24.0,0.,24.0,0.,24.0
1979-07-07 03:22:08.540 ,3,0,0.,24.0,0.,24.0,0.,24.0,0.,24.0
1979-07-07 03:22:32.540 ,2,1,0.,24.0,0.,24.0,0.,24.0,0.,24.0
1979-07-07 03:22:56.540 ,2,0,0.,24.0,0.,24.0,0.,24.0,0.,24.0
1979-07-07 03:23:20.540 ,1,1,0.,24.0,0.,24.0,0.,24.0,0.,24.0
1979-07-07 03:23:44.540 ,1,0,0.,24.0,0.,24.0,0.,24.0,0.,24.0
1979-07-07 03:24:08.540 ,0,1,0.,24.0,0.,24.0,0.,24.0,0.,24.0
1979-07-07 03:24:32.540 ,0,0,0.,24.0,0.,24.0,0.,24.0,0.,24.0
1979-07-07 03:24:56.540 ,0,1,0.,24.0,0.,24.0,0.,24.0,0.,24.0
1979-07-07 03:25:20.540 ,0,0,0.,24.0,0.,24.0,0.,24.0,0.,24.0
1979-07-07 03:25:44.540 ,1,1,0.,24.0,0.,24.0,0.,24.0,0.,24.0
1979-07-07 03:26:08.540 ,1,0,0.,24.0,0.,24.0,0.,24.0,0.,24.0
1979-07-07 03:26:32.540 ,2,1,0.,24.0,0.,24.0,0.,24.0,0.,24.0
1979-07-07 03:26:56.540 ,2,0,0.,24.0,0.,24.0,0.,24.0,0.,24.0
1979-07-07 03:27:20.540 ,3,1,0.,24.0,0.,24.0,0.,24.0,0.,24.0
1979-07-07 03:27:44.540 ,3,0,0.,24.0,0.,24.0,0.,24.0,0.,24.0
1979-07-07 03:28:08.540 ,4,1,0.,24.0,0.,24.0,0.,24.0,0.,24.0
1979-07-07 03:28:32.540 ,4,0,0.,24.0,0.,24.0,0.,24.0,0.,24.0
1979-07-07 03:28:56.540 ,5,1,0.,24.0,0.,24.0,0.,24.0,0.,24.0
1979-07-07 03:29:20.540 ,5,0,0.,24.0,0.,24.0,0.,24.0,0.,24.0
1979-07-07 03:29:44.540 ,6,1,0.,24.0,0.,24.0,0.,24.0,0.,24.0
1979-07-07 03:30:08.540 ,6,0,0.,24.0,0.,24.0,0.,24.0,0.,24.0
1979-07-07 03:30:32.540 ,7,0,0.,24.0,0.,24.0,0.,24.0,0.,24.0
1979-07-07 03:30:56.540 ,7,0,0.,24.0,0.,24.0,0.,24.0,0.,24.0
1979-07-07 03:31:20.540 ,5,1,0.,24.0,0.,24.0,0.,24.0,0.,24.0
1979-07-07 03:31:44.540 ,1,1,0.,24.0,0.,24.0,0.,24.0,0.,24.0
1979-07-07 03:32:08.540 ,2,1,0.,24.0,0.,24.0,0.,24.0,0.,24.0
1979-07-07 03:32:32.540 ,6,1,0.,24.0,0.,24.0,0.,24.0,0.,24.0
1979-07-07 03:32:56.540 ,5,1,0.,24.0,0.,24.0,0.,24.0,0.,24.0
1979-07-07 03:33:20.540 ,1,1,0.,24.0,0.,24.0,0.,24.0,0.,24.0
1979-07-07 03:33:44.540 ,2,1,0.,24.0,0.,24.0,0.,24.0,0.,24.0
1979-07-07 03:34:08.530 ,6,1,0.,24.0,0.,24.0,0.,24.0,0.,24.0
1979-07-07 03:34:32.530 ,5,1,0.,24.0,0.,24.0,0.,24.0,0.,24.0
1979-07-07 03:34:56.530 ,1,1,0.,24.0,0.,24.0,0.,24.0,0.,24.0
1979-07-07 03:35:20.530 ,2,1,0.,24.0,0.,24.0,0.,24.0,0.,24.0
1979-07-07 03:35:44.530 ,6,1,0.,24.0,0.,24.0,0.,24.0,0.,24.0
1979-07-07 03:36:08.530 ,5,1,0.,24.0,0.,24.0,0.,24.0,0.,24.0
1979-07-07 03:36:32.530 ,1,1,0.,24.0,0.,24.0,0.,24.0,0.,24.0
1979-07-07 03:36:56.530 ,2,1,0.,24.0,0.,24.0,0.,24.0,0.,24.0
1979-07-07 03:37:20.530 ,6,1,0.,24.0,0.,24.0,0.,24.0,0.,24.0
1979-07-07 03:37:44.530 ,5,1,0.,24.0,0.,24.0,0.,24.0,0.,24.0
1979-07-07 03:38:08.530 ,1,1,0.,24.0,0.,24.0,0.,24.0,0.,24.0
1979-07-07 03:38:32.530 ,2,1,0.,24.0,0.,24.0,0.,24.0,0.,24.0
1979-07-07 03:38:56.530 ,6,1,0.,24.0,0.,24.0,0.,24.0,0.,24.0
1979-07-07 03:39:20.530 ,5,1,0.,24.0,0.,24.0,0.,24.0,0.,24.0
1979-07-07 03:39:44.530 ,1,1,0.,24.0,0.,24.0,0.,24.0,0.,24.0
1979-07-07 03:40:08.530 ,2,1,0.,24.0,0.,24.0,0.,24.0,0.,24.0
1979-07-07 03:40:32.530 ,6,1,0.,24.0,0.,24.0,0.,24.0,0.,24.0
1979-07-07 03:40:56.530 ,5,1,0.,24.0,0.,24.0,0.,24.0,0.,24.0
1979-07-07 03:41:20.530 ,1,1,0.,24.0,0.,24.0,0.,24.0,0.,24.0
1979-07-07 03:41:44.530 ,0,0,0.,24.0,0.,24.0,0.,24.0,0.,24.0
1979-07-07 03:42:08.530 ,0,0,0.,24.0,0.,24.0,0.,24.0,0.,24.0
1979-07-07 03:42:32.530 ,5,1,0.,24.0,0.,24.0,0.,24.0,0.,24.0
1979-07-07 03:42:56.530 ,5,0,0.,24.0,0.,24.0,0.,24.0,0.,24.0
1979-07-07 03:43:20.530 ,4,1,0.,24.0,0.,24.0,0.,24.0,0.,24.0
1979-07-07 03:43:44.530 ,4,0,0.,24.0,0.,24.0,0.,24.0,0.,24.0
1979-07-07 03:44:08.530 ,3,1,0.,24.0,0.,24.0,0.,24.0,0.,24.0
1979-07-07 03:44:32.530 ,3,0,0.,24.0,0.,24.0,0.,24.0,0.,24.0
1979-07-07 03:44:56.530 ,2,1,0.,24.0,0.,24.0,0.,24.0,0.,24.0
1979-07-07 03:45:20.530 ,2,0,0.,24.0,0.,24.0,0.,24.0,0.,24.0
1979-07-07 03:45:44.530 ,1,1,0.,24.0,0.,24.0,0.,24.0,0.,24.0
1979-07-07 03:46:08.530 ,1,0,0.,24.0,0.,24.0,0.,24.0,0.,24.0
1979-07-07 03:46:32.530 ,0,1,0.,24.0,0.,24.0,0.,24.0,0.,24.0
1979-07-07 03:46:56.530 ,0,0,0.,24.0,0.,24.0,0.,24.0,0.,24.0
1979-07-07 03:47:20.530 ,0,1,0.,24.0,0.,24.0,0.,24.0,0.,24.0
1979-07-07 03:47:44.530 ,0,0,0.,24.0,0.,24.0,0.,24.0,0.,24.0
1979-07-07 03:48:08.530 ,1,1,0.,24.0,0.,24.0,0.,24.0,0.,24.0
1979-07-07 03:48:32.530 ,1,0,0.,24.0,0.,24.0,0.,24.0,0.,24.0
1979-07-07 03:48:56.530 ,2,1,0.,24.0,0.,24.0,0.,24.0,0.,24.0
1979-07-07 03:49:20.530 ,2,0,0.,24.0,0.,24.0,0.,24.0,0.,24.0
1979-07-07 03:49:44.530 ,3,1,0.,24.0,0.,24.0,0.,24.0,0.,24.0
1979-07-07 03:50:08.530 ,3,0,0.,24.0,0.,24.0,0.,24.0,0.,24.0
1979-07-07 03:50:32.530 ,4,1,0.,24.0,0.,24.0,0.,24.0,0.,24.0
1979-07-07 03:50:56.530 ,4,0,0.,24.0,0.,24.0,0.,24.0,0.,24.0
1979-07-07 03:51:20.530 ,5,1,0.,24.0,0.,24.0,0.,24.0,0.,24.0
1979-07-07 03:51:44.530 ,5,0,0.,24.0,0.,24.0,0.,24.0,0.,24.0
1979-07-07 03:52:08.530 ,6,1,0.,24.0,0.,24.0,0.,24.0,0.,24.0
1979-07-07 03:52:32.530 ,6,0,0.,24.0,0.,24.0,0.,24.0,0.,24.0
1979-07-07 03:52:56.530 ,7,1,0.,24.0,0.,24.0,0.,24.0,0.,24.0
1979-07-07 03:53:20.530 ,7,0,0.,24.0,0.,24.0,0.,24.0,0.,24.0
1979-07-07 03:53:44.530 ,7,1,0.,24.0,0.,24.0,0.,24.0,0.,24.0
1979-07-07 03:54:08.530 ,7,0,0.,24.0,0.,24.0,0.,24.0,0.,24.0
1979-07-07 03:54:32.530 ,6,1,0.,24.0,0.,24.0,0.,24.0,0.,24.0
1979-07-07 03:54:56.530 ,6,0,0.,24.0,0.,24.0,0.,24.0,0.,24.0
1979-07-07 03:55:20.530 ,5,1,0.,24.0,0.,24.0,0.,24.0,0.,24.0
1979-07-07 03:55:44.530 ,5,0,0.,24.0,0.,24.0,0.,24.0,0.,24.0
1979-07-07 03:56:08.530 ,4,1,0.,24.0,0.,24.0,0.,24.0,0.,24.0
1979-07-07 03:56:32.530 ,4,0,0.,24.0,0.,24.0,0.,24.0,0.,24.0
1979-07-07 03:56:56.530 ,3,1,0.,24.0,0.,24.0,0.,24.0,0.,24.0
1979-07-07 03:57:20.530 ,3,0,0.,24.0,0.,24.0,0.,24.0,0.,24.0
1979-07-07 03:57:44.530 ,2,1,0.,24.0,0.,24.0,0.,24.0,0.,24.0
1979-07-07 03:58:08.530 ,2,0,0.,24.0,0.,24.0,0.,24.0,0.,24.0
1979-07-07 03:58:32.530 ,1,1,0.,24.0,0.,24.0,0.,24.0,0.,24.0
1979-07-07 03:58:56.530 ,1,0,0.,24.0,0.,24.0,0.,24.0,0.,24.0
1979-07-07 03:59:20.530 ,0,1,0.,24.0,0.,24.0,0.,24.0,0.,24.0
1979-07-07 03:59:44.530 ,0,0,0.,24.0,0.,24.0,0.,24.0,0.,24.0
1979-07-07 04:00:08.530 ,0,1,0.,24.0,0.,24.0,0.,24.0,0.,24.0
1979-07-07 04:00:32.530 ,0,0,0.,24.0,0.,24.0,0.,24.0,0.,24.0
1979-07-07 04:00:56.530 ,1,1,0.,24.0,0.,24.0,0.,24.0,0.,24.0
1979-07-07 04:01:20.530 ,1,0,0.,24.0,0.,24.0,0.,24.0,0.,24.0
1979-07-07 04:01:44.530 ,2,1,0.,24.0,0.,24.0,0.,24.0,0.,24.0
1979-07-07 04:02:08.530 ,2,0,0.,24.0,0.,24.0,0.,24.0,0.,24.0
1979-07-07 04:02:32.530 ,3,1,0.,24.0,0.,24.0,0.,24.0,0.,24.0
1979-07-07 04:02:56.530 ,3,0,0.,24.0,0.,24.0,0.,24.0,0.,24.0
1979-07-07 04:03:20.530 ,4,1,0.,24.0,0.,24.0,0.,24.0,0.,24.0
1979-07-07 04:03:44.530 ,4,0,0.,24.0,0.,24.0,0.,24.0,0.,24.0
1979-07-07 04:04:08.530 ,5,1,0.,24.0,0.,24.0,0.,24.0,0.,24.0
1979-07-07 04:04:32.530 ,5,0,0.,24.0,0.,24.0,0.,24.0,0.,24.0
1979-07-07 04:04:56.530 ,6,1,0.,24.0,0.,24.0,0.,24.0,0.,24.0
1979-07-07 04:05:20.530 ,6,0,0.,24.0,0.,24.0,0.,24.0,0.,24.0
1979-07-07 04:05:44.530 ,7,1,0.,24.0,0.,24.0,0.,24.0,0.,24.0
1979-07-07 04:06:08.530 ,7,0,0.,24.0,0.,24.0,0.,24.0,0.,24.0
1979-07-07 04:06:32.530 ,7,1,0.,24.0,0.,24.0,0.,24.0,0.,24.0
1979-07-07 04:06:56.530 ,7,0,0.,24.0,0.,24.0,0.,24.0,0.,24.0
1979-07-07 04:07:20.530 ,6,1,0.,24.0,0.,24.0,0.,24.0,0.,24.0
1979-07-07 04:07:44.530 ,6,0,0.,24.0,0.,24.0,0.,24.0,0.,24.0
1979-07-07 04:08:08.530 ,5,1,0.,24.0,0.,24.0,0.,24.0,0.,24.0
1979-07-07 04:08:32.530 ,5,0,0.,24.0,0.,24.0,0.,24.0,0.,24.0
1979-07-07 04:08:56.530 ,4,1,0.,24.0,0.,24.0,0.,24.0,0.,24.0
1979-07-07 04:09:20.530 ,4,0,0.,24.0,0.,24.0,0.,24.0,0.,24.0
1979-07-07 04:09:44.530 ,3,1,0.,24.0,0.,24.0,0.,24.0,0.,24.0
1979-07-07 04:10:08.530 ,3,0,0.,24.0,0.,24.0,0.,24.0,0.,24.0
1979-07-07 04:10:32.530 ,2,1,0.,24.0,0.,24.0,0.,24.0,0.,24.0
1979-07-07 04:10:56.530 ,2,0,0.,24.0,0.,24.0,0.,24.0,0.,24.0
1979-07-07 04:11:20.530 ,1,1,0.,24.0,0.,24.0,0.,24.0,0.,24.0
1979-07-07 04:11:44.530 ,1,0,0.,24.0,0.,24.0,0.,24.0,0.,24.0
1979-07-07 04:12:08.530 ,0,1,0.,24.0,0.,24.0,0.,24.0,0.,24.0
1979-07-07 04:12:32.530 ,0,0,0.,24.0,0.,24.0,0.,24.0,0.,24.0
1979-07-07 04:12:56.530 ,0,1,0.,24.0,0.,24.0,0.,24.0,0.,24.0
1979-07-07 04:13:20.530 ,0,0,0.,24.0,0.,24.0,0.,24.0,0.,24.0
1979-07-07 04:13:44.530 ,1,1,0.,24.0,0.,24.0,0.,24.0,0.,24.0
1979-07-07 04:14:08.530 ,1,0,0.,24.0,0.,24.0,0.,24.0,0.,24.0
1979-07-07 04:14:32.530 ,2,1,0.,24.0,0.,24.0,0.,24.0,0.,24.0
1979-07-07 04:14:56.530 ,2,0,0.,24.0,0.,24.0,0.,24.0,0.,24.0
1979-07-07 04:15:20.530 ,3,1,0.,24.0,0.,24.0,0.,24.0,0.,24.0
1979-07-07 04:15:44.530 ,3,0,0.,24.0,0.,24.0,0.,24.0,0.,24.0
1979-07-07 04:16:08.530 ,4,1,0.,24.0,0.,24.0,0.,24.0,0.,24.0
1979-07-07 04:16:32.530 ,4,0,0.,24.0,0.,24.0,0.,24.0,0.,24.0
1979-07-07 04:16:56.530 ,5,1,0.,24.0,0.,24.0,0.,24.0,0.,24.0
1979-07-07 04:17:20.530 ,5,0,0.,24.0,0.,24.0,0.,24.0,0.,24.0
1979-07-07 04:17:44.530 ,6,1,0.,24.0,0.,24.0,0.,24.0,0.,24.0
1979-07-07 04:18:08.530 ,6,0,0.,24.0,0.,24.0,0.,24.0,0.,24.0
1979-07-07 04:18:32.530 ,7,0,0.,24.0,0.,24.0,0.,24.0,0.,24.0
1979-07-07 04:18:56.530 ,7,0,0.,24.0,0.,24.0,0.,24.0,0.,24.0
1979-07-07 04:19:20.530 ,5,1,0.,24.0,0.,24.0,0.,24.0,0.,24.0
1979-07-07 04:19:44.530 ,1,1,0.,24.0,0.,24.0,0.,24.0,0.,24.0
1979-07-07 04:20:08.530 ,2,1,0.,24.0,0.,24.0,0.,24.0,0.,24.0
1979-07-07 04:20:32.530 ,6,1,0.,24.0,0.,24.0,0.,24.0,0.,24.0
1979-07-07 04:20:56.530 ,5,1,0.,24.0,0.,24.0,0.,24.0,0.,24.0
1979-07-07 04:21:20.530 ,1,1,0.,24.0,0.,24.0,0.,24.0,0.,24.0
1979-07-07 04:21:44.530 ,2,1,0.,24.0,0.,24.0,0.,24.0,0.,24.0
1979-07-07 04:22:08.530 ,6,1,0.,24.0,0.,24.0,0.,24.0,0.,24.0
1979-07-07 04:22:32.530 ,5,1,0.,24.0,0.,24.0,0.,24.0,0.,24.0
1979-07-07 04:22:56.530 ,1,1,0.,24.0,0.,24.0,0.,24.0,0.,24.0
1979-07-07 04:23:20.530 ,2,1,0.,24.0,0.,24.0,0.,24.0,0.,24.0
1979-07-07 04:23:44.530 ,6,1,0.,24.0,0.,24.0,0.,24.0,0.,24.0
1979-07-07 04:24:08.530 ,5,1,0.,24.0,0.,24.0,0.,24.0,0.,24.0
1979-07-07 04:24:32.530 ,1,1,0.,24.0,0.,24.0,0.,24.0,0.,24.0
1979-07-07 04:24:56.530 ,2,1,0.,24.0,0.,24.0,0.,24.0,0.,24.0
1979-07-07 04:25:20.530 ,6,1,0.,24.0,0.,24.0,0.,24.0,0.,24.0
1979-07-07 04:25:44.530 ,5,1,0.,24.0,0.,24.0,0.,24.0,0.,24.0
1979-07-07 04:26:08.530 ,1,1,0.,24.0,0.,24.0,0.,24.0,0.,24.0
1979-07-07 04:26:32.530 ,2,1,0.,24.0,0.,24.0,0.,24.0,0.,24.0
1979-07-07 04:26:56.530 ,6,1,0.,24.0,0.,24.0,0.,24.0,0.,24.0
1979-07-07 04:27:20.530 ,5,1,0.,24.0,0.,24.0,0.,24.0,0.,24.0
1979-07-07 04:27:44.530 ,1,1,0.,24.0,0.,24.0,0.,24.0,0.,24.0
1979-07-07 04:28:08.530 ,2,1,0.,24.0,0.,24.0,0.,24.0,0.,24.0
1979-07-07 04:28:32.530 ,6,1,0.,24.0,0.,24.0,0.,24.0,0.,24.0
1979-07-07 04:28:56.530 ,5,1,0.,24.0,0.,24.0,0.,24.0,0.,24.0
1979-07-07 04:29:20.530 ,1,1,0.,24.0,0.,24.0,0.,24.0,0.,24.0
1979-07-07 04:29:44.530 ,0,0,0.,24.0,0.,24.0,0.,24.0,0.,24.0
1979-07-07 04:30:08.530 ,0,0,0.,24.0,0.,24.0,0.,24.0,0.,24.0
1979-07-07 04:30:32.530 ,5,1,0.,24.0,0.,24.0,0.,24.0,0.,24.0
1979-07-07 04:30:56.530 ,5,0,0.,24.0,0.,24.0,0.,24.0,0.,24.0
1979-07-07 04:31:20.530 ,4,1,0.,24.0,0.,24.0,0.,24.0,0.,24.0
1979-07-07 04:31:44.530 ,4,0,0.,24.0,0.,24.0,0.,24.0,0.,24.0
1979-07-07 04:32:08.530 ,3,1,0.,24.0,0.,24.0,0.,24.0,0.,24.0
1979-07-07 04:32:32.530 ,3,0,0.,24.0,0.,24.0,0.,24.0,0.,24.0
1979-07-07 04:32:56.530 ,2,1,0.,24.0,0.,24.0,0.,24.0,0.,24.0
1979-07-07 04:33:20.530 ,2,0,0.,24.0,0.,24.0,0.,24.0,0.,24.0
1979-07-07 04:33:44.530 ,1,1,0.,24.0,0.,24.0,0.,24.0,0.,24.0
1979-07-07 04:34:08.530 ,1,0,0.,24.0,0.,24.0,0.,24.0,0.,24.0
1979-07-07 04:34:32.530 ,0,1,0.,24.0,0.,24.0,0.,24.0,0.,24.0
1979-07-07 04:34:56.530 ,0,0,0.,24.0,0.,24.0,0.,24.0,0.,24.0
1979-07-07 04:35:20.530 ,0,1,0.,24.0,0.,24.0,0.,24.0,0.,24.0
1979-07-07 04:35:44.530 ,0,0,0.,24.0,0.,24.0,0.,24.0,0.,24.0
1979-07-07 04:36:08.530 ,1,1,0.,24.0,0.,24.0,0.,24.0,0.,24.0
1979-07-07 04:36:32.530 ,1,0,0.,24.0,0.,24.0,0.,24.0,0.,24.0
1979-07-07 04:36:56.530 ,2,1,0.,24.0,0.,24.0,0.,24.0,0.,24.0
1979-07-07 04:37:20.530 ,2,0,0.,24.0,0.,24.0,0.,24.0,0.,24.0
1979-07-07 04:37:44.530 ,3,1,0.,24.0,0.,24.0,0.,24.0,0.,24.0
1979-07-07 04:38:08.530 ,3,0,0.,24.0,0.,24.0,0.,24.0,0.,24.0
1979-07-07 04:38:32.530 ,4,1,0.,24.0,0.,24.0,0.,24.0,0.,24.0
1979-07-07 04:38:56.530 ,4,0,0.,24.0,0.,24.0,0.,24.0,0.,24.0
1979-07-07 04:39:20.530 ,5,1,0.,24.0,0.,24.0,0.,24.0,0.,24.0
1979-07-07 04:39:44.530 ,5,0,0.,24.0,0.,24.0,0.,24.0,0.,24.0
1979-07-07 04:40:08.530 ,6,1,0.,24.0,0.,24.0,0.,24.0,0.,24.0
1979-07-07 04:40:32.530 ,6,0,0.,24.0,0.,24.0,0.,24.0,0.,24.0
1979-07-07 04:40:56.530 ,7,1,0.,24.0,0.,24.0,0.,24.0,0.,24.0
1979-07-07 04:41:20.530 ,7,0,0.,24.0,0.,24.0,0.,24.0,0.,24.0
1979-07-07 04:41:44.530 ,7,1,0.,24.0,0.,24.0,0.,24.0,0.,24.0
1979-07-07 04:42:08.530 ,7,0,0.,24.0,0.,24.0,0.,24.0,0.,24.0
1979-07-07 04:42:32.530 ,6,1,0.,24.0,0.,24.0,0.,24.0,0.,24.0
1979-07-07 04:42:56.530 ,6,0,0.,24.0,0.,24.0,0.,24.0,0.,24.0
1979-07-07 04:43:20.530 ,5,1,0.,24.0,0.,24.0,0.,24.0,0.,24.0
1979-07-07 04:43:44.530 ,5,0,0.,24.0,0.,24.0,0.,24.0,0.,24.0
1979-07-07 04:44:08.530 ,4,1,0.,24.0,0.,24.0,0.,24.0,0.,24.0
1979-07-07 04:44:32.530 ,4,0,0.,24.0,0.,24.0,0.,24.0,0.,24.0
1979-07-07 04:44:56.530 ,3,1,0.,24.0,0.,24.0,0.,24.0,0.,24.0
1979-07-07 04:45:20.530 ,3,0,0.,24.0,0.,24.0,0.,24.0,0.,24.0
1979-07-07 04:45:44.530 ,2,1,0.,24.0,0.,24.0,0.,24.0,0.,24.0
1979-07-07 04:46:08.530 ,2,0,0.,24.0,0.,24.0,0.,24.0,0.,24.0
1979-07-07 04:46:32.530 ,1,1,0.,24.0,0.,24.0,0.,24.0,0.,24.0
1979-07-07 04:46:56.530 ,1,0,0.,24.0,0.,24.0,0.,24.0,0.,24.0
1979-07-07 04:47:20.530 ,0,1,0.,24.0,0.,24.0,0.,24.0,0.,24.0
1979-07-07 04:47:44.530 ,0,0,0.,24.0,0.,24.0,0.,24.0,0.,24.0
1979-07-07 04:48:08.530 ,0,1,0.,24.0,0.,24.0,0.,24.0,0.,24.0
1979-07-07 04:48:32.530 ,0,0,0.,24.0,0.,24.0,0.,24.0,0.,24.0
1979-07-07 04:48:56.530 ,1,1,0.,24.0,0.,24.0,0.,24.0,0.,24.0
1979-07-07 04:49:20.530 ,1,0,0.,24.0,0.,24.0,0.,24.0,0.,24.0
1979-07-07 04:49:44.530 ,2,1,0.,24.0,0.,24.0,0.,24.0,0.,24.0
1979-07-07 04:50:08.530 ,2,0,0.,24.0,0.,24.0,0.,24.0,0.,24.0
1979-07-07 04:50:32.530 ,3,1,0.,24.0,0.,24.0,0.,24.0,0.,24.0
1979-07-07 04:50:56.530 ,3,0,0.,24.0,0.,24.0,0.,24.0,0.,24.0
1979-07-07 04:51:20.530 ,4,1,0.,24.0,0.,24.0,0.,24.0,0.,24.0
1979-07-07 04:51:44.530 ,4,0,0.,24.0,0.,24.0,0.,24.0,0.,24.0
1979-07-07 04:52:08.530 ,5,1,0.,24.0,0.,24.0,0.,24.0,0.,24.0
1979-07-07 04:52:32.530 ,5,0,0.,24.0,0.,24.0,0.,24.0,0.,24.0
1979-07-07 04:52:56.530 ,6,1,0.,24.0,0.,24.0,0.,24.0,0.,24.0
1979-07-07 04:53:20.530 ,6,0,0.,24.0,0.,24.0,0.,24.0,0.,24.0
1979-07-07 04:53:44.530 ,7,1,0.,24.0,0.,24.0,0.,24.0,0.,24.0
1979-07-07 04:54:08.530 ,7,0,0.,24.0,0.,24.0,0.,24.0,0.,24.0
1979-07-07 04:54:32.530 ,7,1,0.,24.0,0.,24.0,0.,24.0,0.,24.0
1979-07-07 04:54:56.530 ,7,0,0.,24.0,0.,24.0,0.,24.0,0.,24.0
1979-07-07 04:55:20.530 ,6,1,0.,24.0,0.,24.0,0.,24.0,0.,24.0
1979-07-07 04:55:44.530 ,6,0,0.,24.0,0.,24.0,0.,24.0,0.,24.0
1979-07-07 04:56:08.530 ,5,1,0.,24.0,0.,24.0,0.,24.0,0.,24.0
1979-07-07 04:56:32.530 ,5,0,0.,24.0,0.,24.0,0.,24.0,0.,24.0
1979-07-07 04:56:56.530 ,4,1,0.,24.0,0.,24.0,0.,24.0,0.,24.0
1979-07-07 04:57:20.530 ,4,0,0.,24.0,0.,24.0,0.,24.0,0.,24.0
1979-07-07 04:57:44.530 ,3,1,0.,24.0,0.,24.0,0.,24.0,0.,24.0
1979-07-07 04:58:08.530 ,3,0,0.,24.0,0.,24.0,0.,24.0,0.,24.0
1979-07-07 04:58:32.530 ,2,1,0.,24.0,0.,24.0,0.,24.0,0.,24.0
1979-07-07 04:58:56.530 ,2,0,0.,24.0,0.,24.0,0.,24.0,0.,24.0
1979-07-07 04:59:20.530 ,1,1,0.,24.0,0.,24.0,0.,24.0,0.,24.0
1979-07-07 04:59:44.530 ,1,0,0.,24.0,0.,24.0,0.,24.0,0.,24.0
1979-07-07 05:00:08.530 ,0,1,0.,24.0,0.,24.0,0.,24.0,0.,24.0
1979-07-07 05:00:32.530 ,0,0,0.,24.0,0.,24.0,0.,24.0,0.,24.0
1979-07-07 05:00:56.530 ,0,1,0.,24.0,0.,24.0,0.,24.0,0.,24.0
1979-07-07 05:01:20.530 ,0,0,0.,24.0,0.,24.0,0.,24.0,0.,24.0
1979-07-07 05:01:44.530 ,1,1,0.,24.0,0.,24.0,0.,24.0,0.,24.0
1979-07-07 05:02:08.530 ,1,0,0.,24.0,0.,24.0,0.,24.0,0.,24.0
1979-07-07 05:02:32.530 ,2,1,0.,24.0,0.,24.0,0.,24.0,0.,24.0
1979-07-07 05:02:56.530 ,2,0,0.,24.0,0.,24.0,0.,24.0,0.,24.0
1979-07-07 05:03:20.530 ,3,1,0.,24.0,0.,24.0,0.,24.0,0.,24.0
1979-07-07 05:03:44.530 ,3,0,0.,24.0,0.,24.0,0.,24.0,0.,24.0
1979-07-07 05:04:08.530 ,4,1,0.,24.0,0.,24.0,0.,24.0,0.,24.0
1979-07-07 05:04:32.530 ,4,0,0.,24.0,0.,24.0,0.,24.0,0.,24.0
1979-07-07 05:04:56.530 ,5,1,0.,24.0,0.,24.0,0.,24.0,0.,24.0
1979-07-07 05:05:20.530 ,5,0,0.,24.0,0.,24.0,0.,24.0,0.,24.0
1979-07-07 05:05:44.530 ,6,1,0.,24.0,0.,24.0,0.,24.0,0.,24.0
1979-07-07 05:06:08.530 ,6,0,0.,24.0,0.,24.0,0.,24.0,0.,24.0
1979-07-07 05:06:32.530 ,7,0,0.,24.0,0.,24.0,0.,24.0,0.,24.0
1979-07-07 05:06:56.530 ,7,0,0.,24.0,0.,24.0,0.,24.0,0.,24.0
1979-07-07 05:07:20.530 ,5,1,0.,24.0,0.,24.0,0.,24.0,0.,24.0
1979-07-07 05:07:44.530 ,1,1,0.,24.0,0.,24.0,0.,24.0,0.,24.0
1979-07-07 05:08:08.530 ,2,1,0.,24.0,0.,24.0,0.,24.0,0.,24.0
1979-07-07 05:08:32.530 ,6,1,0.,24.0,0.,24.0,0.,24.0,0.,24.0
1979-07-07 05:08:56.530 ,5,1,0.,24.0,0.,24.0,0.,24.0,0.,24.0
1979-07-07 05:09:20.530 ,1,1,0.,24.0,0.,24.0,0.,24.0,0.,24.0
1979-07-07 05:09:44.530 ,2,1,0.,24.0,0.,24.0,0.,24.0,0.,24.0
1979-07-07 05:10:08.530 ,6,1,0.,24.0,0.,24.0,0.,24.0,0.,24.0
1979-07-07 05:10:32.530 ,5,1,0.,24.0,0.,24.0,0.,24.0,0.,24.0
1979-07-07 05:10:56.530 ,1,1,0.,24.0,0.,24.0,0.,24.0,0.,24.0
1979-07-07 05:11:20.530 ,2,1,0.,24.0,0.,24.0,0.,24.0,0.,24.0
1979-07-07 05:11:44.530 ,6,1,0.,24.0,0.,24.0,0.,24.0,0.,24.0
1979-07-07 05:12:08.530 ,5,1,0.,24.0,0.,24.0,0.,24.0,0.,24.0
1979-07-07 05:12:32.530 ,1,1,0.,24.0,0.,24.0,0.,24.0,0.,24.0
1979-07-07 05:12:56.530 ,2,1,0.,24.0,0.,24.0,0.,24.0,0.,24.0
1979-07-07 05:13:20.530 ,6,1,0.,24.0,0.,24.0,0.,24.0,0.,24.0
1979-07-07 05:13:44.530 ,5,1,0.,24.0,0.,24.0,0.,24.0,0.,24.0
1979-07-07 05:14:08.530 ,1,1,0.,24.0,0.,24.0,0.,24.0,0.,24.0
1979-07-07 05:14:32.530 ,2,1,0.,24.0,0.,24.0,0.,24.0,0.,24.0
1979-07-07 05:14:56.530 ,6,1,0.,24.0,0.,24.0,0.,24.0,0.,24.0
1979-07-07 05:15:20.530 ,5,1,0.,24.0,0.,24.0,0.,24.0,0.,24.0
1979-07-07 05:15:44.530 ,1,1,0.,24.0,0.,24.0,0.,24.0,0.,24.0
1979-07-07 05:16:08.530 ,2,1,0.,24.0,0.,24.0,0.,24.0,0.,24.0
1979-07-07 05:16:32.530 ,6,1,0.,24.0,0.,24.0,0.,24.0,0.,24.0
1979-07-07 05:16:56.530 ,5,1,0.,24.0,0.,24.0,0.,24.0,0.,24.0
1979-07-07 05:17:20.530 ,1,1,0.,24.0,0.,24.0,0.,24.0,0.,24.0
1979-07-07 05:17:44.530 ,0,0,0.,24.0,0.,24.0,0.,24.0,0.,24.0
1979-07-07 05:18:08.530 ,0,0,0.,24.0,0.,24.0,0.,24.0,0.,24.0
1979-07-07 05:18:32.530 ,5,1,0.,24.0,0.,24.0,0.,24.0,0.,24.0
1979-07-07 05:18:56.530 ,5,0,0.,24.0,0.,24.0,0.,24.0,0.,24.0
1979-07-07 05:19:20.530 ,4,1,0.,24.0,0.,24.0,0.,24.0,0.,24.0
1979-07-07 05:19:44.530 ,4,0,0.,24.0,0.,24.0,0.,24.0,0.,24.0
1979-07-07 05:20:08.530 ,3,1,0.,24.0,0.,24.0,0.,24.0,0.,24.0
1979-07-07 05:20:32.530 ,3,0,0.,24.0,0.,24.0,0.,24.0,0.,24.0
1979-07-07 05:20:56.530 ,2,1,0.,24.0,0.,24.0,0.,24.0,0.,24.0
1979-07-07 05:21:20.530 ,2,0,0.,24.0,0.,24.0,0.,24.0,0.,24.0
1979-07-07 05:21:44.530 ,1,1,0.,24.0,0.,24.0,0.,24.0,0.,24.0
1979-07-07 05:22:08.530 ,1,0,0.,24.0,0.,24.0,0.,24.0,0.,24.0
1979-07-07 05:22:32.530 ,0,1,0.,24.0,0.,24.0,0.,24.0,0.,24.0
1979-07-07 05:22:56.530 ,0,0,0.,24.0,0.,24.0,0.,24.0,0.,24.0
1979-07-07 05:23:20.530 ,0,1,0.,24.0,0.,24.0,0.,24.0,0.,24.0
1979-07-07 05:23:44.530 ,0,0,0.,24.0,0.,24.0,0.,24.0,0.,24.0
1979-07-07 05:24:08.530 ,1,1,0.,24.0,0.,24.0,0.,24.0,0.,24.0
1979-07-07 05:24:32.530 ,1,0,0.,24.0,0.,24.0,0.,24.0,0.,24.0
1979-07-07 05:24:56.530 ,2,1,0.,24.0,0.,24.0,0.,24.0,0.,24.0
1979-07-07 05:25:20.530 ,2,0,0.,24.0,0.,24.0,0.,24.0,0.,24.0
1979-07-07 05:25:44.530 ,3,1,0.,24.0,0.,24.0,0.,24.0,0.,24.0
1979-07-07 05:26:08.530 ,0,0,0.,24.0,0.,24.0,0.,24.0,0.,24.0
1979-07-07 05:26:37.930 ,0,0,0.,24.0,0.,24.0,0.,24.0,0.,24.0
1979-07-07 05:26:56.530 ,0,0,0.,24.0,0.,24.0,0.,24.0,0.,24.0
1979-07-07 05:27:20.530 ,5,1,0.,24.0,0.,24.0,0.,24.0,0.,24.0
1979-07-07 05:27:44.530 ,5,0,0.,24.0,0.,24.0,0.,24.0,0.,24.0
1979-07-07 05:28:08.530 ,6,1,0.,24.0,0.,24.0,0.,24.0,0.,24.0
1979-07-07 05:28:32.530 ,6,0,0.,24.0,0.,24.0,0.,24.0,0.,24.0
1979-07-07 05:28:56.530 ,7,1,0.,24.0,0.,24.0,0.,24.0,0.,24.0
1979-07-07 05:29:20.530 ,7,0,0.,24.0,0.,24.0,0.,24.0,0.,24.0
1979-07-07 05:29:44.530 ,7,1,0.,24.0,0.,24.0,0.,24.0,0.,24.0
1979-07-07 05:30:08.530 ,7,0,0.,24.0,0.,24.0,0.,24.0,0.,24.0
1979-07-07 05:30:32.530 ,6,1,0.,24.0,0.,24.0,0.,24.0,0.,24.0
1979-07-07 05:30:56.530 ,6,0,0.,24.0,0.,24.0,0.,24.0,0.,24.0
1979-07-07 05:31:20.530 ,5,1,0.,24.0,0.,24.0,0.,24.0,0.,24.0
1979-07-07 05:31:44.530 ,5,0,0.,24.0,0.,24.0,0.,24.0,0.,24.0
1979-07-07 05:32:08.530 ,4,1,0.,24.0,0.,24.0,0.,24.0,0.,24.0
1979-07-07 05:32:32.530 ,4,0,0.,24.0,0.,24.0,0.,24.0,0.,24.0
1979-07-07 05:32:56.530 ,3,1,0.,24.0,0.,24.0,0.,24.0,0.,24.0
1979-07-07 05:33:20.530 ,3,0,0.,24.0,0.,24.0,0.,24.0,0.,24.0
1979-07-07 05:33:44.530 ,2,1,0.,24.0,0.,24.0,0.,24.0,0.,24.0
1979-07-07 05:34:08.530 ,2,0,0.,24.0,0.,24.0,0.,24.0,0.,24.0
1979-07-07 05:34:32.530 ,1,1,0.,24.0,0.,24.0,0.,24.0,0.,24.0